Temp
14 14 14 14 13 14 13 14 14 14 14 14 15 15 15 15 13 14 14 14 14 14 14 13 14 14 14 14 14 14 14 14 14
14 13 13 13 13 13 13 13 14 14 14 14 14 14 14 14 12 12 12 14 14 14 13 13 13 13 14 14 14 14 14 14 14
14 14 13 14 13 13 13 14 14 14 14 14 14 14 14 12 11 13 11 13 12 11 11 12 13 13 13 14 13 14 14 14 14
13 13 13 14 13 14 14 14 14 14 14 14 14 13 13 12 11 12 11 13 12 11 11 12 12 13 13 13 13 13 13 13 13
13 13 13 13 13 13 13 13 13 13 13 13 13 13 12 11 11 11 12 12 11 10 11 12 12 12 12 12 13 13 13 13 13
12 13 13 13 13 13 13 13 13 13 14 13 13 13 11 11 10 10 12 11 10 10 9 11 11 12 11 12 11 12 12 13 13
13 13 13 13 13 13 13 13 14 13 13 12 11 10 10 10 10 11 12 11 10 10 11 10 11 11 11 10 10 10 10 10 12
12 12 12 12 13 12 12 12 12 13 13 12 11 11 10 10 10 10 11 10 9 10 10 10 10 10 11 11 10 10 10 10 10
12 12 12 12 13 12 12 12 12 13 12 12 12 11 10 9 9 9 10 9 9 9 9 9 10 10 10 10 10 10 11 10 10
12 12 12 12 12 12 12 12 11 11 11 11 11 11 10 9 9 9 9 9 9 9 8 8 9 10 9 9 10 10 10 10 10
12 12 12 12 12 12 12 11 11 10 11 10 10 10 9 9 9 8 8 8 8 8 8 9 9 9 9 9 9 9 9 9 9
12 12 12 12 12 12 12 11 11 10 10 9 9 8 9 8 8 7 7 7 7 8 8 8 9 9 9 8 8 9 9 8 9
12 11 12 12 12 11 11 11 11 10 10 9 7 8 7 8 7 7 7 7 7 7 8 7 8 8 8 8 8 8 9 9 9
11 11 12 12 11 11 11 10 10 10 10 9 7 7 7 7 7 7 7 7 7 7 8 8 8 8 8 8 7 7 8 8 8
11 11 11 11 11 11 10 10 10 10 10 8 7 7 8 7 7 7 7 7 7 7 7 7 7 7 7 7 7 7 7 7 7
11 11 11 11 10 10 10 10 10 10 10 8 8 7 7 6 6 6 6 7 7 8 8 8 7 7 7 7 7 6 6 6 7
10 10 10 10 10 10 10 10 9 9 9 9 8 9 8 7 7 7 6 6 7 7 7 7 7 6 7 6 6 7 7 6 6
10 10 10 10 10 10 9 9 9 9 8 8 8 8 8 8 8 7 6 6 6 6 7 6 7 7 6 6 7 7 7 7 6
10 10 10 9 9 9 9 9 8 8 8 7 7 7 6 6 7 8 7 6 6 6 6 6 7 6 6 6 6 7 7 7 7
9 9 9 9 9 8 8 8 8 8 8 7 7 6 5 5 5 5 6 6 6 5 5 5 5 5 6 6 6 7 7 7 7
Height
1533 1532 1531 1531 1530 1528 1527 1526 1525 1524 1523 1523 1522 1522 1522 1522 1522 1522 1522 1522 1522 1522 1523 1523 1524 1524 1523 1523 1523 1523 1523 1524 1523
1534 1533 1532 1531 1530 1529 1528 1527 1526 1525 1524 1523 1523 1522 1522 1522 1522 1522 1521 1520 1520 1521 1521 1520 1521 1521 1521 1521 1521 1521 1521 1521 1522
1535 1534 1533 1532 1531 1529 1528 1527 1526 1525 1524 1523 1523 1522 1522 1522 1522 1522 1521 1520 1520 1520 1519 1519 1519 1519 1518 1518 1519 1519 1519 1519 1519
1536 1535 1534 1533 1532 1530 1529 1528 1526 1525 1524 1524 1523 1522 1522 1521 1522 1522 1522 1520 1520 1519 1518 1518 1517 1517 1516 1516 1516 1516 1517 1516 1517
1537 1536 1535 1534 1533 1532 1530 1529 1528 1526 1525 1524 1523 1523 1522 1523 1523 1523 1520 1520 1520 1519 1517 1516 1516 1515 1515 1514 1514 1514 1514 1514 1514
1539 1538 1537 1535 1534 1533 1531 1530 1529 1527 1526 1525 1524 1523 1524 1524 1523 1522 1520 1519 1519 1518 1517 1516 1515 1514 1513 1513 1513 1512 1512 1511 1512
1540 1539 1537 1536 1534 1533 1531 1530 1528 1527 1525 1524 1524 1524 1524 1524 1522 1519 1519 1518 1518 1517 1516 1516 1515 1513 1512 1511 1511 1511 1510 1509 1508
1541 1539 1538 1536 1534 1532 1530 1529 1528 1526 1525 1524 1523 1523 1523 1524 1523 1519 1519 1518 1519 1518 1517 1515 1515 1514 1512 1511 1510 1509 1509 1508 1507
1541 1540 1538 1536 1535 1533 1531 1529 1528 1526 1525 1523 1522 1522 1522 1522 1522 1519 1518 1518 1518 1518 1517 1515 1514 1513 1513 1511 1510 1509 1509 1508 1507
1541 1540 1538 1537 1535 1533 1531 1529 1528 1526 1525 1523 1522 1521 1521 1521 1521 1518 1519 1518 1518 1517 1516 1515 1514 1513 1512 1511 1510 1508 1508 1507 1505
1541 1540 1538 1536 1535 1533 1531 1529 1527 1526 1524 1523 1522 1521 1520 1520 1521 1519 1518 1517 1517 1516 1515 1514 1513 1513 1512 1511 1510 1508 1506 1505 1504
1541 1540 1538 1537 1535 1534 1532 1530 1528 1526 1524 1523 1522 1521 1519 1520 1520 1518 1518 1518 1517 1516 1515 1514 1512 1512 1511 1510 1508 1506 1504 1503 1502
1541 1540 1539 1537 1535 1533 1532 1530 1527 1526 1524 1523 1523 1523 1522 1521 1520 1520 1519 1518 1517 1515 1514 1513 1511 1509 1509 1508 1507 1504 1503 1502 1500
1542 1540 1539 1537 1535 1533 1532 1530 1528 1525 1524 1523 1522 1520 1519 1519 1519 1519 1519 1517 1516 1515 1513 1511 1509 1507 1506 1506 1505 1504 1502 1500 1498
1541 1540 1538 1537 1536 1534 1532 1530 1528 1526 1524 1523 1523 1522 1518 1518 1519 1518 1517 1515 1514 1513 1511 1510 1507 1505 1504 1503 1502 1501 1499 1498 1496
1541 1540 1539 1537 1536 1534 1533 1531 1529 1527 1525 1524 1524 1522 1520 1519 1519 1519 1517 1515 1513 1510 1509 1506 1506 1504 1503 1501 1500 1499 1497 1495 1493
1540 1540 1539 1538 1536 1535 1534 1532 1530 1529 1527 1525 1524 1524 1523 1521 1520 1518 1516 1515 1513 1510 1507 1505 1503 1502 1501 1500 1498 1497 1495 1493 1490
1539 1539 1538 1537 1536 1535 1534 1532 1531 1529 1527 1526 1526 1525 1523 1520 1518 1517 1516 1514 1512 1509 1507 1505 1503 1501 1500 1498 1496 1494 1491 1490 1488
1538 1538 1537 1536 1535 1534 1533 1532 1530 1529 1527 1526 1525 1525 1524 1523 1521 1519 1517 1515 1512 1510 1506 1504 1502 1500 1498 1496 1494 1492 1490 1487 1485
1537 1537 1536 1535 1534 1533 1532 1531 1530 1529 1527 1526 1525 1524 1523 1522 1520 1516 1515 1513 1511 1509 1506 1504 1501 1498 1497 1496 1493 1490 1487 1485 1482
Wind_Speed
11 11 11 10 11 11 10 9 9 8 8 7 7 6 5 4 5 6 9 9 14 12 13 13 12 13 12 11 11 13 11 11 11
11 11 11 11 11 10 10 10 9 9 9 8 8 8 6 5 6 5 7 7 7 8 9 13 12 13 13 13 13 12 14 14 13
10 10 11 11 10 10 10 10 10 9 9 9 9 8 7 7 6 6 5 6 4 3 7 12 13 14 16 17 16 14 13 14 14
10 11 11 11 11 11 11 11 11 10 10 9 9 8 8 8 6 5 4 4 4 4 8 10 11 13 14 15 15 15 14 13 14
11 12 11 12 12 11 12 12 12 11 11 11 10 9 9 8 7 6 7 5 4 6 9 10 11 11 12 12 12 13 15 16 16
11 11 12 12 12 12 13 13 13 12 12 11 11 9 7 5 5 5 7 5 6 7 9 10 11 11 11 10 10 10 12 15 17
9 11 11 11 12 12 12 12 12 13 11 10 10 7 6 5 4 8 6 5 5 8 10 11 12 12 11 10 8 8 11 11 14
10 11 11 11 12 11 12 11 11 12 12 11 8 8 6 5 4 10 6 4 3 3 4 4 5 8 10 10 8 7 9 11 11
9 9 10 11 11 12 12 13 13 12 12 11 10 7 6 4 3 11 6 4 4 4 4 6 4 3 6 7 6 6 7 9 9
8 9 11 12 13 12 12 12 12 11 12 11 10 8 5 4 1 9 8 5 7 7 7 8 6 4 4 6 8 9 8 9 7
9 10 11 11 12 12 13 14 14 12 13 12 10 8 6 4 2 7 5 5 7 8 9 9 9 8 7 7 8 8 9 8 7
9 9 10 12 14 14 14 14 13 11 12 10 10 8 5 2 3 4 2 7 11 8 9 10 11 12 11 9 9 11 11 11 9
8 10 11 12 13 14 13 13 12 12 11 8 8 8 5 2 4 3 5 7 6 10 10 13 14 13 13 14 12 13 13 12 12
8 10 11 12 13 13 13 12 12 12 11 8 5 2 1 2 2 3 8 11 12 12 15 15 14 11 12 12 13 14 14 14 14
7 9 10 11 12 12 12 12 13 13 12 7 4 1 5 4 3 6 8 12 13 16 16 15 13 13 11 10 12 13 14 15 15
6 8 9 10 11 12 13 13 11 12 13 8 5 6 6 5 6 7 9 13 15 16 15 12 12 11 11 10 12 14 15 15 15
6 7 8 9 10 11 11 12 12 12 13 12 6 5 4 4 11 9 8 11 15 15 13 12 10 9 10 11 13 15 18 17 15
5 6 6 7 9 10 10 11 11 10 11 11 7 5 4 13 7 9 8 11 13 12 16 13 11 10 10 11 13 14 16 18 17
6 7 7 7 8 8 9 9 9 9 9 7 8 5 6 5 8 7 10 13 14 13 14 11 13 12 12 12 15 16 16 15 15
8 8 8 8 8 8 8 9 9 8 8 9 9 7 8 6 7 13 13 15 12 15 16 10 13 12 13 13 16 16 14 16 16
Wind_Direction
24 24 25 23 22 22 20 17 15 11 8 2 358 353 349 341 328 311 290 286 261 275 276 279 286 284 282 281 281 273 273 266 262
30 32 31 31 27 24 21 21 21 18 15 12 9 8 9 14 357 358 353 298 292 281 276 271 267 274 279 282 281 286 272 270 270
35 36 34 31 27 25 22 21 21 20 17 13 12 12 16 35 352 359 358 338 8 0 275 280 285 281 277 275 279 281 279 268 268
35 35 34 30 29 25 24 23 21 20 18 16 15 15 21 47 343 22 311 330 312 299 293 299 297 294 291 286 277 273 270 270 269
36 35 32 30 26 23 22 20 18 16 15 15 12 13 32 21 0 360 321 321 327 314 303 310 307 304 300 298 289 277 269 266 264
30 30 25 22 18 15 14 12 8 4 6 9 4 8 7 359 6 306 327 329 347 332 330 324 322 313 310 305 301 293 283 274 270
27 25 20 18 13 14 11 14 12 12 7 356 3 356 351 347 350 297 320 326 346 340 354 6 2 355 337 323 322 321 306 297 282
21 14 10 8 4 4 0 1 358 357 355 354 353 345 352 343 348 299 322 346 8 5 352 350 352 7 0 2 355 329 329 335 330
14 8 9 7 4 2 358 359 356 355 349 344 342 338 334 337 345 301 321 331 317 331 298 298 297 301 3 13 359 336 329 315 331
16 12 10 9 7 4 1 358 357 353 350 347 341 334 323 314 1 287 317 333 325 342 357 357 348 310 316 329 322 315 320 316 315
17 16 11 7 6 4 3 0 358 355 350 349 345 339 326 306 93 285 334 318 328 335 339 339 338 340 337 325 317 311 302 304 292
17 14 10 6 8 9 7 4 4 356 353 357 349 351 344 52 190 221 262 337 343 336 339 338 337 331 325 326 310 298 303 305 302
15 15 13 12 11 10 10 6 6 359 357 8 1 17 41 192 248 278 314 324 329 333 332 330 325 323 319 316 314 313 319 317 314
16 16 14 12 13 12 12 12 8 5 359 7 359 329 218 208 304 306 311 318 324 325 325 326 324 320 315 312 314 315 316 317 316
12 13 12 13 14 13 14 14 14 6 360 0 333 349 334 333 314 294 303 314 321 322 325 325 316 316 315 312 313 314 316 315 315
4 6 8 9 13 16 14 15 15 13 10 19 331 315 327 327 324 304 301 314 326 327 327 326 321 312 318 315 312 315 316 317 316
352 360 2 7 11 12 12 15 20 13 17 15 11 336 294 337 303 314 311 328 335 332 334 328 327 321 320 322 321 321 320 319 315
332 341 347 354 359 1 3 7 11 14 10 19 29 346 335 329 324 326 318 319 332 328 332 329 331 323 319 320 321 327 326 324 320
310 322 330 336 341 345 347 352 358 3 359 13 3 0 326 337 327 336 325 338 322 322 328 318 322 319 318 325 331 332 328 328 328
301 308 315 318 318 320 325 334 340 342 344 342 343 341 329 314 302 306 307 310 307 311 322 302 300 305 315 317 329 326 327 325 326